STARLINK-11209 [DTC]

Last updated on Fri Oct 04 2024 00:02:04 GMT+0000 (Coordinated Universal Time)

1 61200U 24171A 24277.58334491 .00153358 00000+0 92753-3 0 9996 2 61200 53.1609 231.7875 0000681 100.7723 221.2234 15.76646956 3287
UTC large
Height (km)
Speed (km/s)
/
Latitude / Longitude
Inclination (degrees)
Orbital Period (minutes)
Azimuth
Elevation
Range (km)
Doppler Factor

Next 0 passes for location: London (51.5072 / 0.1276)

Sorry there are no passes over London.